Regional Weather Roundup
Issued by NWS Burlington, VT

Home | Current Version | Previous Version | Text Only | Print | Product List | Glossary On
Versions: 1 2 3 4 5 6 7 8 9 10 11 12 13 14 15 16 17 18 19 20 21 22 23 24 25 26 27 28 29 30 31 32 33 34 35 36 37 38 39 40 41 42 43 44 45 46 47 48 49 50
000
ASUS41 KBTV 271510
RWRBTV
VERMONT REGIONAL WEATHER ROUNDUP
NATIONAL WEATHER SERVICE BURLINGTON VT
1000 AM EST TUE JAN 27 2015

NOTE: "FAIR" INDICATES FEW OR NO CLOUDS BELOW 12,000 FEET WITH NO
SIGNIFICANT WEATHER AND/OR OBSTRUCTIONS TO VISIBILITY.

* THESE REPORTS ARE NOT UNDER NWS QUALITY CONTROL AND/OR DO NOT
  REPORT WEATHER SUCH AS PRECIPITATION AND FOG.

VTZ001>019-271600-
_____VERMONT_____


CITY           SKY/WX    TMP DP  RH WIND       PRES   REMARKS
BURLINGTON     CLOUDY     8  -3  61 N17       29.95S WCI -10
MONTPELIER     SNOW       6   1  80 N12       29.84S VSB 1/2 WCI  -9
MORRISVILLE    CLOUDY    10  -7  46 N15G22    29.91S WCI  -7
ST. JOHNSBURY*   N/A     10   5  80 MISG      29.82S
MIDDLEBURY*    CLOUDY     9  -1  62 N10G18    29.87S WCI  -5
RUTLAND*       CLOUDY     7   1  78 NW7       29.79S VSB 1
SPRINGFIELD    SNOW      13   6  74 N9        29.75F VSB 1/2
HIGHGATE*      FAIR       7  -4  59 N16G22    30.02R WCI -11
NEWPORT*       CLOUDY     5  -6  62 N15G22    29.90S WCI -13
BENNINGTON     SNOW       9   4  80 NW9       29.75S VSB 1/2
SUTTON*          N/A      5 N/A N/A MISG        N/A

_____LAKE CHAMPLAIN_____


CITY           SKY/WX    TMP DP  RH WIND       PRES   REMARKS

$$

NYZ007-026>031-035-052-083-271600-
_____NORTHERN NEW YORK_____


CITY           SKY/WX    TMP DP  RH WIND       PRES   REMARKS
PLATTSBURGH    CLOUDY     8  -5  55 N21       30.01F WCI -12
SARANAC LAKE   PTSUNNY    3  -7  63 NE12      29.83R WCI -13
MASSENA        MOSUNNY    7  -4  60 NE20G30   30.10S WCI -13
OGDENSBURG*    SUNNY     10   0  61 NE12      30.06S WCI  -4
POTSDAM*       SUNNY      7   0  72 NE16G22   30.03S WCI -11
WATERTOWN      MOSUNNY    9  -2  61 NE22G35   30.01S WCI -11
FT DRUM        MOSUNNY    5  -5  63 NE20      29.97S WCI -15
ALBANY         LGT SNOW  13   6  74 N10       29.85R WCI   0
GLENS FALLS    CLOUDY    14  -1  51 NE10      29.84F WCI   1

$$
NHZ002-005-011-271600-
_____NEW HAMPSHIRE_____


CITY           SKY/WX    TMP DP  RH WIND       PRES   REMARKS
LEBANON        LGT SNOW  14   8  77 N10G23    29.75F VSB 1   WCI   1
KEENE          CLOUDY    14   9  79 N21       29.67F VSB 1/4 WCI  -4
MT WASHINGTON  SNOW       1   1 100 E90G102     N/A  VSB 1/16WCI -34
PLYMOUTH       SNOW      15  14  97 W9        29.70F VSB 1/2
WHITEFIELD     HVY SNOW  10   5  80 VRB5      29.76F VSB 1/4

$$

_____REGIONAL QUEBEC LOCATIONS_____


CITY           SKY/WX    TMP DP  RH WIND       PRES   REMARKS
MONTREAL       CLOUDY     7  -4  61 N20G35    30.11F WCI -13
QUEBEC CITY    CLOUDY     7  -6  56 NE24G32   30.15F WCI -15
SHERBROOKE     CLOUDY     5  -8  56 NE9G23    29.94F

_____REGIONAL ONTARIO LOCATIONS_____


CITY           SKY/WX    TMP DP  RH WIND       PRES   REMARKS
OTTAWA         PTSUNNY    5  -8  56 N15       30.12S WCI -13

______KEY______
VSB  - VISIBILITY IN MILES
WCI  - WIND CHILL INDEX
HX   - HEAT INDEX
$$
NNNN


USA.gov is the U.S. government's official web portal to all federal, state and local government web resources and services.